User: anonymous   Login
Location: Baumgartsau
(48.4586°N, 14.0864°E)
Time: 12:21:59
(UTC+00:00)
Language:

Cosmos 1802 Rocket - Orbit

View from above orbital plane
View from above orbital plane
View from above satellite
View from above satellite

Ground track
Ground track

The orbit data is extracted from the following two-line orbital elements,

1 17160U 86093B   20188.85339684 +.00000065 +00000-0 +53171-4 0  9998
2 17160 082.9288 316.6264 0037517 279.8000 191.5409 13.74641906685875
Epoch (UTC): 06 July 2020 20:28:53
Eccentricity: 0.0037517
inclination: 82.9288°
perigee height: 955 km
apogee height: 1010 km
right ascension of ascending node: 316.6264°
argument of perigee: 279.8000°
revolutions per day: 13.74641906
mean anomaly at epoch: 191.5409°
orbit number at epoch: 68587

The dashed part of the orbit path shows where the satellite is in the earth's shadow,  

DLR